Home   Weather   Romsey   Past weeks
Flag for United Kingdom

Past Weather in Romsey, England, United Kingdom — Yesterday and Last 2 Weeks

Now
66 °F

Passing clouds.


Feels Like: 66 °F
Forecast: 83 / 57 °F
Wind: 6 mph from South

Location: Southampton / Weather Centre

Current Time: Jul 22, 2019 at 9:33:25 pm

Latest Report: Jul 22, 2019 at 8:50 pm


Visibility: N/A

Pressure: 30.15 "Hg

Humidity: 83%

Dew Point: 61 °F

Location of RomseyLocation

Past Weather in Romsey — Graph

°F

Romsey Temperature Yesterday

Maximum temperature yesterday: 68 °F (at 1:20 pm)
Minimum temperature yesterday: 54 °F (at 6:50 am)
Average temperature yesterday: 64 °F

High & Low Weather Summary for the Past Weeks

 TemperatureHumidityPressure
High75 °F (Jul 12, 2:20 pm)94% (Jul 17, 6:20 am)30.21 "Hg (Jul 17, 6:20 am)
Low46 °F (Jul 8, 5:50 am)40% (Jul 8, 5:50 pm)29.71 "Hg (Jul 20, 5:50 am)
Average65 °F65%30.05 "Hg
* Reported Jul 7 8:20 pm — Jul 22 8:20 pm, Romsey. Weather by CustomWeather, © 2019

Note: Actual official high and low records may vary slightly from our data, if they occured in-between our weather recording intervals... More about our weather records

Advertising

Romsey Weather History for the Previous 24 Hours

Scroll right to see more
 ConditionsComfort  
Time TempWeatherWind HumidityBarometerVisibility
8:20 pm
Mon, Jul 22
70 °FPassing clouds.7 mph73%30.18 "HgN/A
7:50 pm70 °FScattered clouds.9 mph73%30.18 "HgN/A
7:20 pm70 °FScattered clouds.10 mph73%30.18 "HgN/A
6:50 pm72 °FScattered clouds.9 mph69%30.18 "HgN/A
6:20 pm72 °FScattered clouds.9 mph69%30.18 "HgN/A
5:50 pm72 °FPartly sunny.8 mph69%30.18 "HgN/A
5:20 pm73 °FPartly sunny.8 mph65%30.18 "HgN/A
4:50 pm72 °FPartly sunny.8 mph65%30.18 "HgN/A
4:20 pm72 °FScattered clouds.12 mph65%30.18 "HgN/A
3:50 pm73 °FScattered clouds.10 mph61%30.18 "HgN/A
3:20 pm73 °FScattered clouds.12 mph65%30.18 "HgN/A
2:50 pm73 °FScattered clouds.10 mph69%30.21 "HgN/A
2:20 pm72 °FScattered clouds.12 mph69%30.21 "HgN/A
1:50 pm72 °FScattered clouds.12 mph73%30.21 "HgN/A
12:50 pm68 °FScattered clouds.9 mph83%30.21 "HgN/A
12:20 pm70 °FScattered clouds.8 mph73%30.21 "HgN/A
11:50 am70 °FScattered clouds.8 mph73%30.21 "HgN/A
11:20 am68 °FPartly sunny.7 mph78%30.21 "HgN/A
10:50 am68 °FPartly sunny.8 mph78%30.21 "HgN/A
10:20 am66 °FPartly sunny.8 mph83%30.21 "HgN/A
9:50 am66 °FPartly sunny.9 mph83%30.21 "HgN/A
9:20 am66 °FPartly sunny.12 mph83%30.21 "HgN/A
8:50 am66 °FPartly sunny.8 mph83%30.21 "HgN/A
8:20 am64 °FPartly sunny.7 mph88%30.21 "HgN/A
7:50 am64 °FPartly sunny.8 mph83%30.18 "HgN/A
7:20 am63 °FPartly sunny.8 mph88%30.18 "HgN/A
6:50 am63 °FBroken clouds.9 mph83%30.18 "HgN/A
6:20 am61 °FScattered clouds.8 mph88%30.18 "HgN/A
5:50 am61 °FScattered clouds.7 mph88%30.18 "HgN/A
10:20 pm
Sun, Jul 21
61 °FPassing clouds.8 mph83%30.18 "HgN/A
9:50 pm61 °FPassing clouds.12 mph83%30.18 "HgN/A
9:20 pm63 °FPassing clouds.12 mph73%30.18 "HgN/A
Weather by CustomWeather, © 2019

See weather overview